Погода в Камышлове

Погода в Камышлове : погода сейчас, прогноз погоды и архив. Всё, что Вы хотите узнать о погоде в Камышлове!

Хотите узнать прогноз погоды в Камышлове? Тогда Вам сюда: Погода в Камышлове

Поиск расширенной информации на нашем сайте:

Другие новости

Новости СМИ2

Главная страница сайта

Новости сайта

02.10.2013

Напоминаем, что на нашем новом сайте вы можете получить высокодетализированные прогнозы погоды по пунктам России, СНГ и мира (включающие важные для авиации метеовеличины, такие как направление и скорость ветра, видимость, явления погоды, количество и форма облачности, нижняя и верхняя граница облачности), а также ознакомиться с разнообразными материалами по авиационной метеорологии и подборкой полезных ссылок на эту тему.

Сайт Метеоцентр.Азия посвящён разработке технологий оптимизации авиаметеорологического обслуживания, включая проектирование и перспективное создание нескольких автоматизированных авиаметеорологических систем:
- система выпуска высокодетальных прогностических карт явлений погоды для нижнего воздушного пространства по России и ближнему зарубежью;
- система верификации прогнозов TAF (выпускаемых синоптиками официальных АМСГ РФ и ближнего зарубежья) и AUTOTAF (выпускаемых сайтом Метеоцентр.Азия) - выявление ошибок, онлайн-сопоставление с фактической погодой METAR, автоматическое внесение коррективов в прогнозы при резком отклонении фактической погоды от прогноза, подсчёт оправдываемости прогнозов по элементам и в целом;
- система обработки, анализа и отображения авиаметеорологической информации для применения провайдерами метеорологической информации.


Погода в Камышлове - сегодня

Время (UTC), дата Ветер
(°,м/с) 
Видим.   Явления Облачность Т
(°С)
Тd
(°С)
f(%) Тe
(°С)
Pmin
(гПа)
dP
(гПа)
Po
(мм)
O2
(г/м3)
Тmin Tmax R s Состояние
почвы
12 23.04.17 120 (ЮВ) 4000 м  слаб. ливневой дождь  10/10 600 м кучево-дожд. 
[Cb cap]
+6.3 +2.9 79 +6  1003.7  1.5  741  291           
15 23.04.17 300 (СЗ) 20000 м  {ливн. осадки}  10/10 600 м кучево-дожд. 
[Cb cap]
+5.5 +3.3 86 +6  1005.8  743  293    +11.4  0.4     
18 23.04.17 260 (З) 4000 м  {ливн. осадки}  10/10 600 м 
[Sc]
+5.4 +2.9 84 +4  1008.8  3.1  745  294           
21 23.04.17 270 (З) н/о    н/о 
+5.2 +0.7 73 +4  1011.1  2.2  747  295           
00 24.04.17 270 (З) н/о    н/о 
+4.8 -0.1 71 +4  1013.5  2.3  748  296           
03 24.04.17 250 (З) 20000 м    8/0 средняя, верхняя 
[Ac trans|Ci fib]
+5.6 +0.4 69 +4  1015.9  2.4  750  296  +4.4        влажная 
06 24.04.17 230 (ЮЗ) 20000 м    8/0 средняя 
[Ac trans]
+10.4 +0.3 50 +10  1016  0.3  750  291           
09 24.04.17 210 (ЮЗ) 20000 м    8/0 средняя 
[Ac trans]
+13.4 -2.2 34 +13  1015.3  -0.4  750  288           
12 24.04.17 150 (ЮВ) 4000 м  слаб. ливневой дождь  10/10 600 м кучево-дожд. 
[Cb cap]
+8.7 +2.4 65 +8  1015.4  -0.2  750  293           
15 24.04.17 100 (В) 4000 м  слаб. ливневой дождь  10/10 600 м кучево-дожд. 
[Cb cap]
+6.6 +4.4 86 +5  1013.2  -2.2  748  294    +13.7  0.4     
18 24.04.17 110 (В) 6{10}  4000 м  слаб. ливневой дождь  10/10 600 м кучево-дожд. 
[Cb cap]
+7.6 +4.3 80 +6  1009.9  -3.2  746  292           
21 24.04.17 130 (ЮВ) 4{11}  4000 м  слаб. ливневой дождь  10/10 600 м кучево-дожд. 
[Cb cap]
+9.2 +6 80 +8  1006.6  -3.2  744  289           
00 25.04.17 140 (ЮВ) 5{10}  10 км  {ливн. осадки}  10/10 600 м 
[Sc]
+11 +5.9 71 +10  1003.7  -2.8  741  286           
03 25.04.17 190 (Ю) 4{10}  20000 м    9/9 600 м 
[Sc]
+12.7 +8 73 +12  1003.1  -0.5  741  284  +6.3      мокрая 
06 25.04.17 250 (З) 7-11{13}  20000 м    4/0 средняя, верхняя 
[Ac trans|Ci fib]
+14.4 +5 53 +13  1005.9  2.8  743  284           
09 25.04.17 250 (З) 6-10{15}  20000 м    ясно 
+17.9 +1.2 32 +18  1008  2.3  745  281           
12 25.04.17 260 (З) 7-12{13}  20000 м    ясно 
+18 -1.8 26 +18  1010.5  2.5  747  282           
15 25.04.17 280 (З) 5{12}  20000 м    ясно 
+13.2 -2.2 34 +12  1013.4  2.5  749  288    +18.6       
18 25.04.17 300 (СЗ) 3{11}  4000 м    ясно 
+5.7 -1.4 60 +5  1016.8  751  297           
21 25.04.17 280 (З) 4000 м    ясно 
+2.1 -1.9 75 +1  1017.7  0.7  751  301           
00 26.04.17 260 (З) 10 км    ясно 
-0.9 -2.8 87 1018.5  0.6  752  304           
03 26.04.17 290 (З) 20000 м    ясно 
+4.8 -0.2 70 +6  1018.9  0.7  752  298  -1        мокрая 
06 26.04.17 320 (СЗ) 20000 м    4/0 верхняя 
[Ci fib]
+10.5 -2.1 41 +10  1018.1  -0.5  752  292           
09 26.04.17 330 (СЗ) 20000 м    8/0 средняя, верхняя 
[Ac cast|Ci sp]
+12.7 -3.6 32 +13  1017.5  -0.5  752  290           
12 26.04.17 320 (СЗ) 20000 м    8/0 средняя 
[Ac cast]
+13.2 -4.5 29 +12  1016.7  -0.7  751  289           
Время (UTC), дата Ветер
(°,м/с) 
Видим.   Явления Облачность Т
(°С)
Тd
(°С)
f(%) Тe
(°С)
Pmin
(гПа)
dP
(гПа)
Po
(мм)
O2
(г/м3)
Тmin Tmax R s Состояние
почвы

Для получения пояснительной информации подведите курсор к названию столбца.

ПОГОДА в Камышлове - архив

Всё, что Вы хотите узнать о погоде в Камышлове - удобно и подробно!

Выберите нужную дату (начиная с 1 января 2015* года) и нажмите кнопку "Найти".
Будут отображены архивные сводки погоды по пункту Камышлов, начиная с указанной даты.


Отображать данные в формате CSV (для использования в таблицах Excel)


Внимание! Наш архив погоды предназначен исключительно для личного некоммерческого использования в познавательных целях. Если Вам необходимы официальные справки о состоянии погоды (для производственных, юридических, коммерческих и т.п. целей), обращайтесь в органы Росгидромета.

*Примечание: данная дата относится к архиву по метеостанциям СССР (Россия, СНГ, Балтия).
Архив по метеостанциям Зарубежной Европы и Азии (кроме Китая) хранится 10 дней, по другим регионам земного шара (Китай, Африка, Америка, Австралия, Океания) - 1 день.

Камышлов - район местоположения метеостанции


Название, широта, долгота, высота метеостанции:
Камышлов 56.9°ш. 62.7°д. 127 м над ур. моря [Российская Федерация]

Дополнительная информация

В oтличие oт бoльшинства пoгoдных сайтoв мы публикуем пoдрoбную метеoинфoрмацию в детальнoм прoфессиoнальнoм фoрмате.

Характеристики температуры и влажнoсти вoздуха измеряются на высoте 2 м в тени вдали oт зданий и деревьев.
Скoрoсть ветра измеряется на высoте 10 м (на урoвне рoста челoвека скoрoсть ветра ниже в 1.5-2 раза). Если метеoстанция нахoдится в гoрoде или в лесу, тo скoрoсть ветра занижена на 2-4 м/с пo сравнению с oткрытым местoм. Скoрoсть ветра над акватoриями крупных рек и oзёр, а также на вершинах хoлмoв на 2-5 м/с выше, чем в oбычных услoвиях.
Атмoсфернoе давление в разных тoчках местнoсти мoжет значительнo oтличаться oт давления на метеoстанции, в зависимoсти oт услoвий рельефа (при пoдъёме на 10 м давление пoнижается примернo на 1 мм рт.ст.).